Content
SEND FEEDBACK

Daily
Averages
Monthly
Summary
France

LE HAVRE, FRANCE


Home > Europe > France
Elevation: 338 feet     Latitude: 49 31N     Longitude: 000 04E

WEATHER
 
SELECT A DAY
Number of Records: 176,103;   Date Range: 3/4/97 - 7/28/14
 
SHARE

PRINT THIS DATA

[ ← Previous Day ]
WEATHER ALMANAC - JANUARY 3, 2013
[ Next Day → ]
[ °C ]   °F
Weather ElementAverageHighLow
Temperature49.3 °F50 °F (12:30 am)48.2 °F (3:30 pm)
Dewpoint48 °F50 °F (4:00 am)46.4 °F (6:30 pm)
Humidity95.3 %100 % (4:00 am)93 % (6:30 pm)
Barometer30.58 in30.71 in (11:00 pm)30.42 in (12:30 am)
Wind Speed11.4 mph15 mph (12:30 am)
Weather ElementAverage
Visibility3.2 mi
Wind DirectionWSW (251.9 °)

Weather ElementTotal
Precipitation---
Heating Degree Days15.9 (Base 65)
Averaged from 47 records on January 3, 2013
WEATHER CONDITIONS BREAKOUT
WIND DIRECTION BREAKOUT
WEATHER BY HOUR - JANUARY 3, 2013
[ °C ]   °F
Local TimeTemperatureDewpointHumidityBarometerVisibilityWind DirectionWind SpeedGust SpeedPrecipitationEventsConditions
12:30 AM50.0 °F48.2 °F94 %30.42 in6.2 miWSW (250°)15.0 mph
1:00 AM50.0 °F48.2 °F94 %30.42 in4.3 miWSW (250°)12.7 mph
1:30 AM50.0 °F48.2 °F94 %30.45 in1.0 miWSW (250°)12.7 mphMist
2:00 AM50.0 °F48.2 °F94 %30.45 in3.7 miWest (260°)13.8 mph
2:30 AM50.0 °F48.2 °F94 %30.45 in1.0 miWest (270°)13.8 mphMist
3:00 AM50.0 °F48.2 °F94 %30.45 in0.9 miWest (260°)12.7 mphMist
3:30 AM50.0 °F48.2 °F94 %30.48 in0.2 miWSW (250°)11.5 mphFogFog
4:00 AM50.0 °F50.0 °F100 %30.48 in0.1 miWSW (250°)10.4 mphFogFog
4:30 AM50.0 °F50.0 °F100 %30.48 in0.1 miWSW (250°)10.4 mphFogFog
5:00 AM50.0 °F50.0 °F100 %30.48 in0.2 miWest (260°)11.5 mphFogFog
5:30 AM50.0 °F50.0 °F100 %30.48 inWest (270°)11.5 mphMist
6:00 AM50.0 °F50.0 °F100 %30.48 in3.7 miWest (270°)12.7 mph
6:30 AM50.0 °F48.2 °F94 %30.51 in4.3 miWest (260°)11.5 mph
7:00 AM50.0 °F48.2 °F94 %30.51 in5.0 miWest (260°)10.4 mph
7:30 AM50.0 °F48.2 °F94 %30.51 in5.0 miWest (270°)11.5 mph
8:00 AM50.0 °F48.2 °F94 %30.54 in6.2 miWSW (250°)10.4 mph
8:30 AM50.0 °F48.2 °F94 %30.54 in5.6 miWest (260°)11.5 mph
9:00 AM50.0 °F48.2 °F94 %30.54 inWSW (250°)11.5 mphMist
9:30 AM50.0 °F48.2 °F94 %30.57 in0.2 miWSW (250°)13.8 mphFogFog
10:00 AM50.0 °F48.2 °F94 %30.57 in0.3 miWSW (250°)12.7 mphFogPatches of Fog
10:30 AM50.0 °F50.0 °F100 %30.57 in0.5 miWSW (250°)13.8 mphFogPatches of Fog
11:00 AM50.0 °F48.2 °F94 %30.60 in0.2 miWSW (250°)11.5 mphFogFog
11:30 AM50.0 °F48.2 °F94 %30.60 in0.3 miWSW (250°)12.7 mphFogPatches of Fog
12:00 PM50.0 °F48.2 °F94 %30.60 in2.5 miWSW (250°)11.5 mphMist
12:30 PM50.0 °F48.2 °F94 %30.60 in0.2 miWSW (250°)11.5 mphFogFog
1:00 PM50.0 °F48.2 °F94 %30.60 in1.0 miWSW (250°)12.7 mphFogPatches of Fog
1:30 PM50.0 °F48.2 °F94 %30.60 in0.2 miWest (260°)10.4 mphFogFog
2:00 PM50.0 °F48.2 °F94 %30.60 in0.1 miWSW (250°)11.5 mphFogFog
2:30 PM50.0 °F48.2 °F94 %30.60 in0.1 miWSW (250°)12.7 mphFogFog
3:00 PM50.0 °F48.2 °F94 %30.60 in0.1 miWSW (250°)11.5 mphFogFog
3:30 PM48.2 °F48.2 °F100 %30.63 in0.1 miWSW (250°)12.7 mphFogFog
4:00 PM48.2 °F48.2 °F100 %30.63 in1.1 miWSW (240°)11.5 mphMist
4:30 PM48.2 °F48.2 °F100 %30.63 in5.0 miWSW (250°)10.4 mph
5:00 PM48.2 °F48.2 °F100 %30.66 in6.2 miWSW (250°)8.1 mph
5:30 PM48.2 °F48.2 °F100 %30.66 in6.2 miWSW (250°)8.1 mph
6:00 PM48.2 °F48.2 °F100 %30.66 in6.2 miWSW (250°)8.1 mph
6:30 PM48.2 °F46.4 °F93 %30.66 in6.2 miWSW (250°)9.2 mph
7:00 PM48.2 °F46.4 °F93 %30.66 in6.2 miWSW (240°)9.2 mph
7:30 PM48.2 °F46.4 °F93 %30.66 in6.2 miWSW (250°)9.2 mph
8:00 PM48.2 °F46.4 °F93 %30.66 in6.2 miWSW (240°)11.5 mph
8:30 PM48.2 °F46.4 °F93 %30.66 in6.2 miSW (230°)10.4 mph
9:00 PM48.2 °F46.4 °F93 %30.69 in6.2 miSW (230°)9.2 mph
9:30 PM48.2 °F46.4 °F93 %30.69 in6.2 miWSW (240°)10.4 mph
10:00 PM48.2 °F46.4 °F93 %30.69 in6.2 miWSW (250°)10.4 mph
10:30 PM48.2 °F46.4 °F93 %30.69 in6.2 miWest (260°)12.7 mph
11:00 PM48.2 °F46.4 °F93 %30.71 in6.2 miWest (260°)10.4 mph
11:30 PM48.2 °F46.4 °F93 %30.69 in6.2 miWSW (250°)11.5 mph
Hourly data recorded from LFOH, located miles away from Le Havre, France







STORIES FROM OUR PARTNERS